Weather History for KDYT - February, 2014

Change the Weather History Date:

Friday, February 7, 2014

  Actual Average Record
Temperature  
Mean Temperature 6 °F -  
Max Temperature 15 °F 22 °F 62 °F (1997)
Min Temperature -2 °F 1 °F -26 °F (1967)
Degree Days  
Heating Degree Days 58    
Moisture  
Dew Point -8 °F    
Average Humidity 59    
Maximum Humidity 78    
Minimum Humidity 35    
Precipitation  
Precipitation 0.00 in - - ()
Sea Level Pressure  
Sea Level Pressure 30.04 in    
Wind  
Wind Speed 12 mph (SW)    
Max Wind Speed 22 mph    
Max Gust Speed 30 mph    
Visibility 10 miles    
Events      
Averages and records for this station are not official NWS values.
T = Trace of Precipitation, MM = Missing Value Source: NWS Daily Summary

Daily Weather History Graph

Daily Weather History Graph

Search for Another Location

Airport or City:

Trip Planner

Search our weather history database for the weather conditions in past years. The results will help you decide how hot, cold, wet, or windy it might be!

Date:

Astronomy

Feb. 07, 2014 Rise Set
Actual Time 7:24 AM CST 5:21 PM CST
Civil Twilight 6:52 AM CST 5:52 PM CST
Nautical Twilight 6:16 AM CST 6:28 PM CST
Astronomical Twilight 5:41 AM CST 7:04 PM CST
Moon 11:28 AM CST (2/7) 1:43 AM CST (2/7)
Length of Visible Light 11h 00m
Length of Day
9h 56m
First Quarter, 59% of the Moon is Illuminated
Feb 7
First Quarter
Feb 14
Full
Feb 22
Last Quarter
Mar 1
New
Mar 8
First Quarter

Hourly Weather History & Observations

Time (CST) Temp. Windchill Dew Point Humidity Pressure Visibility Wind Dir Wind Speed Gust Speed Precip Events Conditions
12:13 AM -0.4 °F -16.7 °F -7.6 °F 72% 30.06 in 10.0 mi SW 10.4 mph 19.6 mph N/A   Clear
12:34 AM -0.4 °F -20.5 °F -7.6 °F 72% 30.06 in 10.0 mi SW 16.1 mph 21.9 mph N/A   Clear
12:53 AM -0.4 °F -21.2 °F -5.8 °F 78% 30.05 in 10.0 mi SW 17.3 mph 25.3 mph N/A   Clear
1:13 AM -0.4 °F -22.3 °F -5.8 °F 78% 30.04 in 10.0 mi SW 19.6 mph 24.2 mph N/A   Clear
1:34 AM -0.4 °F -19.2 °F -5.8 °F 78% 30.04 in 10.0 mi SW 13.8 mph 24.2 mph N/A   Clear
1:53 AM -0.4 °F -20.5 °F -7.6 °F 72% 30.04 in 10.0 mi SW 16.1 mph 19.6 mph N/A   Clear
2:13 AM -0.4 °F -19.2 °F -7.6 °F 72% 30.04 in 10.0 mi SW 13.8 mph 20.7 mph N/A   Clear
2:34 AM -0.4 °F -19.9 °F -7.6 °F 72% 30.03 in 10.0 mi SW 15.0 mph 21.9 mph N/A   Clear
2:53 AM -0.4 °F -18.4 °F -7.6 °F 72% 30.03 in 10.0 mi SW 12.7 mph 19.6 mph N/A   Clear
3:13 AM -0.4 °F -13.4 °F -7.6 °F 72% 30.02 in 10.0 mi SW 6.9 mph 17.3 mph N/A   Clear
3:34 AM -0.4 °F -18.4 °F -7.6 °F 72% 30.02 in 10.0 mi SW 12.7 mph 23.0 mph N/A   Clear
3:53 AM -0.4 °F -19.9 °F -7.6 °F 72% 30.02 in 10.0 mi SW 15.0 mph 19.6 mph N/A   Clear
4:13 AM -0.4 °F -15.7 °F -7.6 °F 72% 30.02 in 10.0 mi SW 9.2 mph 20.7 mph N/A   Clear
4:34 AM -0.4 °F -22.3 °F -7.6 °F 72% 30.01 in 10.0 mi SW 19.6 mph 23.0 mph N/A   Clear
4:53 AM -0.4 °F -19.9 °F -7.6 °F 72% 30.02 in 10.0 mi SW 15.0 mph 21.9 mph N/A   Clear
5:13 AM -2.2 °F -18.9 °F -9.4 °F 71% 30.02 in 10.0 mi SW 10.4 mph 19.6 mph N/A   Clear
5:34 AM -2.2 °F -20.7 °F -9.4 °F 71% 30.02 in 10.0 mi SW 12.7 mph 19.6 mph N/A   Clear
5:53 AM -2.2 °F -21.5 °F -9.4 °F 71% 30.01 in 10.0 mi SW 13.8 mph 20.7 mph N/A   Clear
6:13 AM -2.2 °F -22.2 °F -9.4 °F 71% 30.01 in 10.0 mi SW 15.0 mph 20.7 mph N/A   Clear
6:34 AM -2.2 °F -19.9 °F -9.4 °F 71% 30.01 in 10.0 mi SW 11.5 mph 20.7 mph N/A   Clear
6:53 AM -2.2 °F -19.9 °F -9.4 °F 71% 30.00 in 10.0 mi SW 11.5 mph 18.4 mph N/A   Clear
7:13 AM -2.2 °F -20.7 °F -9.4 °F 71% 30.01 in 10.0 mi SW 12.7 mph 16.1 mph N/A   Clear
7:34 AM -2.2 °F -14.2 °F -9.4 °F 71% 30.01 in 10.0 mi SW 5.8 mph - N/A   Clear
7:53 AM -2.2 °F -10.4 °F -9.4 °F 71% 30.02 in 10.0 mi SW 3.5 mph 17.3 mph N/A   Clear
8:13 AM -2.2 °F - -9.4 °F 71% 30.02 in 10.0 mi Calm Calm - N/A   Clear
8:34 AM -2.2 °F -21.5 °F -9.4 °F 71% 30.01 in 10.0 mi SW 13.8 mph 21.9 mph N/A   Clear
8:53 AM -2.2 °F -20.7 °F -9.4 °F 71% 30.02 in 10.0 mi WSW 12.7 mph 24.2 mph N/A   Clear
9:14 AM -0.4 °F -21.7 °F -9.4 °F 66% 30.01 in 10.0 mi WSW 18.4 mph 24.2 mph N/A   Clear
9:33 AM -0.4 °F -22.3 °F -9.4 °F 66% 30.01 in 10.0 mi WSW 19.6 mph 28.8 mph N/A   Clear
9:53 AM 1.4 °F -21.0 °F -9.4 °F 61% 30.01 in 10.0 mi SW 21.9 mph 29.9 mph N/A   Clear
10:14 AM 1.4 °F -21.0 °F -9.4 °F 61% 30.02 in 10.0 mi WSW 21.9 mph 27.6 mph N/A   Clear
10:33 AM 3.2 °F -17.6 °F -7.6 °F 61% 30.03 in 10.0 mi WSW 19.6 mph 24.2 mph N/A   Clear
10:53 AM 3.2 °F -17.1 °F -7.6 °F 61% 30.02 in 10.0 mi SW 18.4 mph 24.2 mph N/A   Clear
11:14 AM 5.0 °F -15.7 °F -7.6 °F 56% 30.01 in 10.0 mi SW 20.7 mph 24.2 mph N/A   Clear
11:33 AM 6.8 °F -10.0 °F -7.6 °F 52% 30.01 in 10.0 mi SW 13.8 mph 25.3 mph N/A   Clear
11:53 AM 6.8 °F -11.3 °F -5.8 °F 56% 30.00 in 10.0 mi SW 16.1 mph 25.3 mph N/A   Clear
12:14 PM 8.6 °F -9.5 °F -5.8 °F 52% 30.00 in 10.0 mi SW 17.3 mph 23.0 mph N/A   Clear
12:33 PM 8.6 °F -11.0 °F -5.8 °F 52% 30.00 in 10.0 mi SW 20.7 mph 25.3 mph N/A   Clear
12:53 PM 10.4 °F -8.6 °F -5.8 °F 48% 29.99 in 10.0 mi SW 20.7 mph 27.6 mph N/A   Clear
1:14 PM 10.4 °F -5.4 °F -5.8 °F 48% 30.00 in 10.0 mi SW 13.8 mph 24.2 mph N/A   Clear
1:33 PM 12.2 °F -4.8 °F -5.8 °F 45% 30.00 in 10.0 mi SW 17.3 mph 24.2 mph N/A   Clear
1:53 PM 12.2 °F -4.8 °F -5.8 °F 45% 29.99 in 10.0 mi SW 17.3 mph 24.2 mph N/A   Clear
2:14 PM 12.2 °F -2.5 °F -4.0 °F 48% 30.00 in 10.0 mi SW 12.7 mph 20.7 mph N/A   Clear
2:33 PM 14.0 °F -3.9 °F -5.8 °F 41% 29.99 in 10.0 mi SW 20.7 mph 26.5 mph N/A   Clear
2:53 PM 14.0 °F -3.9 °F -5.8 °F 41% 30.00 in 10.0 mi WSW 20.7 mph 26.5 mph N/A   Clear
3:13 PM 15.8 °F 2.1 °F -5.8 °F 38% 30.00 in 10.0 mi SW 12.7 mph 28.8 mph N/A   Clear
3:33 PM 14.0 °F 2.0 °F -5.8 °F 41% 30.01 in 10.0 mi SW 9.2 mph 23.0 mph N/A   Clear
3:54 PM 14.0 °F -2.5 °F -5.8 °F 41% 30.01 in 10.0 mi SW 17.3 mph 25.3 mph N/A   Clear
4:13 PM 15.8 °F -1.1 °F -7.6 °F 35% 30.02 in 10.0 mi SW 19.6 mph 24.2 mph N/A   Clear
4:33 PM 14.0 °F -0.8 °F -7.6 °F 38% 30.03 in 10.0 mi SW 13.8 mph 21.9 mph N/A   Clear
4:54 PM 14.0 °F 3.9 °F -7.6 °F 38% 30.03 in 10.0 mi SW 6.9 mph 20.7 mph N/A   Clear
5:14 PM 14.0 °F 8.2 °F -7.6 °F 38% 30.04 in 10.0 mi SW 3.5 mph 19.6 mph N/A   Clear
5:33 PM 12.2 °F - -7.6 °F 41% 30.05 in 10.0 mi Calm Calm - N/A   Clear
5:53 PM 12.2 °F -1.0 °F -7.6 °F 41% 30.05 in 10.0 mi WSW 10.4 mph 20.7 mph N/A   Clear
6:14 PM 12.2 °F 4.3 °F -7.6 °F 41% 30.07 in 10.0 mi WSW 4.6 mph 21.9 mph N/A   Clear
6:33 PM 10.4 °F -1.5 °F -7.6 °F 44% 30.07 in 10.0 mi SSW 8.1 mph - N/A   Clear
6:53 PM 8.6 °F -3.7 °F -7.6 °F 48% 30.07 in 10.0 mi SSW 8.1 mph - N/A   Clear
7:13 PM 8.6 °F -8.3 °F -7.6 °F 48% 30.08 in 10.0 mi SW 15.0 mph - N/A   Clear
7:33 PM 8.6 °F - -7.6 °F 48% 30.08 in 10.0 mi Calm Calm - N/A   Clear
7:54 PM 8.6 °F - -7.6 °F 48% 30.09 in 10.0 mi Calm Calm - N/A   Clear
8:13 PM 6.8 °F - -7.6 °F 52% 30.09 in 10.0 mi Calm Calm - N/A   Clear
8:34 PM 6.8 °F - -7.6 °F 52% 30.10 in 10.0 mi Calm Calm - N/A   Clear
8:53 PM 5.0 °F - -7.6 °F 56% 30.10 in 10.0 mi Calm Calm - N/A   Clear
9:13 PM 5.0 °F - -9.4 °F 52% 30.11 in 10.0 mi Calm Calm - N/A   Clear
9:34 PM 3.2 °F - -7.6 °F 61% 30.12 in 10.0 mi Calm Calm - N/A   Clear
9:53 PM 3.2 °F - -9.4 °F 56% 30.12 in 10.0 mi Calm Calm - N/A   Clear
10:13 PM 3.2 °F - -9.4 °F 56% 30.12 in 10.0 mi Calm Calm - N/A   Clear
10:34 PM 3.2 °F - -9.4 °F 56% 30.12 in 10.0 mi Calm Calm - N/A   Clear
10:53 PM 3.2 °F - -9.4 °F 56% 30.12 in 10.0 mi Calm Calm - N/A   Clear
11:13 PM 1.4 °F - -9.4 °F 61% 30.12 in 10.0 mi Calm Calm - N/A   Clear
11:34 PM 1.4 °F - -9.4 °F 61% 30.13 in 10.0 mi Calm Calm - N/A   Clear
11:53 PM 1.4 °F - -9.4 °F 61% 30.13 in 10.0 mi Calm Calm - N/A   Clear